COSMOS 2491 DEB, 57560

Orbit data source: Space-Track

COSMOS 2491 DEB, 57560 is space debris in LEO originally from a launch on Wed, 25 Dec 2013 UTC launched from the Plesetsk Missile And Space Complex (PKMTR). Debris objects in space refer to the collection of defunct objects orbiting the Earth. Examples of debris include non-operational satellites, rocket bodies, and fragments generated from explosions, collisions, or faulty payload assembly.

Loading next visibility...
Identifier
57560, 2013-076AX
Orbit
LEO
Country
Flag of CISCIS
Related business
Manufacturer
TsNIIKhM
Mission
Spacecraft
Bus & Motor
Unknown
Mass
Unknown
Launch date (UTC)
2013-12-25 (12 years ago)
Launch vehicle
Unknown
Launch site
Plesetsk Missile And Space Complex (PKMTR)
Object type
Payload
Rocket body
Debris
Shape & HBR
Unknown shape, 0.1 m
Radar Cross Section
Small (<0.1 m²)

Expand to show TLE details & history
Last TLE update: 5 days ago

TLE from 5 days ago
0 COSMOS 2491 DEB
1 57560U 13076AX  26168.19888758  .00002110  00000-0  12769-1 0  9997
2 57560  82.4889 154.1553 0053257  47.2891 313.2662 12.55572394142194
Epoch: 2026-06-17T04:46Z
TLE epoch observation values (Epoch: 2026-06-17T04:46:23.886Z)
Latitude
-0.00005°
Longitude
177.09577°
Altitude
1,415.562 km
Speed
7.166 km/s
True Right ascension
10h 16m 37s
True Declination
0° 00' 00"
Sunlit
Object was in daylight at epoch
Visualization orbit readout
Latitude
Unknown
Longitude
Unknown
Altitude
Unknown
Speed
Unknown
Apparent Right ascension
Unknown
Apparent Declination
Unknown
Sunlit
N/A
Visualization observer readout
Local Sidereal Time
21:34:24
Azimuth
Unknown
Elevation
Unknown
Doppler factor
Unknown
Orbital elements
Apogee altitude
1,480.237 km
Perigee altitude
1,396.977 km
Semi-major axis
7,816.744 km
Eccentricity
0.00533
Inclination
82.4889°
RAAN
154.1553°
Arg. of periapsis
47.2891°
True anomaly
312.81978°
Mean anomaly
313.2662°
Eccentric anomaly
313.04319°
Mean motion
3.14054 °/min
Orbital period
114.63 mins
BSTAR
0.012769
Loading maneuver chart data...
Computing Atmospheric mass density...
Loading historical data...
Loading historical data...
Loading historical data...
Loading historical data...
Loading historical data...
Loading historical data...
Loading historical data...

Documentation

Showing up to 5 results
|